Weather in Aksenovo

Russia / Ryazan Oblast     54°51′54″N   39°41′23″E
temp.,
°C
wind,
m/s
gust,
m/s
humid.,
%
clouds,
%
prec.,
mm/h
press.,
hPa
HPBL,
m
27 february, sat
sat2700:00+2w71590100 0.1 1001767
03:00+1wnw7148989 0.1 1001945
06:00+1wnw81592100 0.1 10001054
09:00−6nnw81384100 0.8 1003820
12:00−8nnw61085100 0.0 1006706
15:00−7nnw5985100 0.0 1009604
18:00−8nnw3793100 0.0 1011186
21:00−7nnw379299 0.1 1013445
28 february, sun
sun2800:00−8nw2396100 0.1 101379
03:00−10nw379586 0.1 1014165
06:00−10nnw249677 0.1 1014122
09:00−8nnw249486 0.4 1015248
12:00−5nnw248996 0.1 1015438
15:00−3nnw358797 0.1 1015606
18:00−4n249497 0.1 1017169
21:00−5nne229698 0.1 101965
1 march, mon
mon100:00−7ene2295100 0.0 102141
03:00−10n129695 0.1 102321
06:00−12nnw119654 0.0 102421
09:00−8sw119559 0.1 102558
12:00−4sw249293 0.0 1024270
15:00−2wsw469296 0.1 1023500
18:00−1wsw4990100 0.1 1021493
21:00−1wsw61292100 0.1 1019577
2 march, tue
tue200:000w61391100 0.0 1015623
03:00+1wsw61391100 0.0 1012661
06:00+1w71497100 0.1 1009743
09:00+1wnw71397100 0.4 1008871
12:00+1nw7128897 0.3 10091156
15:00+1nw7128596 0.4 10091131
18:00−1nw5129299 0.1 1010749
21:00−2nw5138997 0.1 1011631
3 march, wed
wed300:00−2nw5119588 0.1 1011548
03:00−3nw5129284 0.2 1012609
06:00−4nw5139295 0.0 1013602
09:00−4nnw7128597 0.1 1015985
12:00−2nnw6107860 0.0 10171088
15:00−1nw6118078 0.1 10181305
18:00−4nnw4108396 0.2 1018385
21:00−6nw388948 0.2 1020201